FW2145 Weather Reports


Display with metric or nautical units.
time (UTC)temp
F
wind
direction
speed
MPH
gust
MPH
rain 1hr
in
rain 24hr
in
rain mn
in
humidity
%
barometer
mb
20260506024004 69 204 2.0 3.0 0.00 0.00 0.00 55 973.2
20260506023504 70 205 3.0 3.0 0.00 0.00 0.00 54 973.1
20260506023004 70 180 2.0 5.0 0.00 0.00 0.00 54 973.1
20260506022504 70 114 2.0 3.0 0.00 0.00 0.00 53 973.2
20260506021504 71 136 1.0 2.0 0.00 0.00 0.00 53 973.2
20260506021003 71 202 2.0 5.0 0.00 0.00 0.00 52 973.1
20260506020504 71 212 3.0 6.0 0.00 0.00 0.00 51 973.1
20260506020004 72 210 2.0 6.0 0.00 0.00 0.00 51 972.9
20260506015504 72 202 3.0 5.0 0.00 0.00 0.00 51 972.9
20260506014504 72 189 3.0 5.0 0.00 0.00 0.00 51 972.6
20260506014004 72 247 3.0 5.0 0.00 0.00 0.00 51 972.6
20260506013504 72 205 3.0 5.0 0.00 0.00 0.00 51 972.7
20260506013004 72 162 3.0 5.0 0.00 0.00 0.00 51 972.7
20260506012504 72 270 3.0 5.0 0.00 0.00 0.00 52 972.5
20260506011504 72 208 3.0 5.0 0.00 0.00 0.00 51 972.5
20260506011004 72 214 4.0 6.0 0.00 0.00 0.00 51 972.4
20260506010504 72 170 3.0 5.0 0.00 0.00 0.00 50 972.4
20260506010004 73 213 3.0 5.0 0.00 0.00 0.00 50 972.3
20260506005504 73 152 4.0 6.0 0.00 0.00 0.00 50 972.3
20260506005004 73 214 2.0 3.0 0.00 0.00 0.00 49 972.3
20260506004504 73 237 5.0 6.0 0.00 0.00 0.00 49 972.3
20260506004004 73 234 3.0 6.0 0.00 0.00 0.00 49 972.3
20260506003504 74 203 5.0 7.0 0.00 0.00 0.00 49 972.1
20260506003004 74 244 4.0 6.0 0.00 0.00 0.00 49 972.1
20260506002504 74 235 4.0 6.0 0.00 0.00 0.00 49 972.0
20260506002004 74 195 2.0 6.0 0.00 0.00 0.00 49 972.0
20260506001503 74 233 3.0 6.0 0.00 0.00 0.00 49 972.0
20260506001004 74 220 5.0 9.0 0.00 0.00 0.00 49 972.1
20260506000504 74 193 3.0 5.0 0.00 0.00 0.00 49 972.1
20260506000004 74 228 3.0 5.0 0.00 0.00 0.00 49 972.0
20260505235504 74 164 3.0 5.0 0.00 0.00 0.00 49 972.0
20260505235004 74 133 2.0 5.0 0.00 0.00 0.00 49 971.9
20260505234504 74 174 3.0 5.0 0.00 0.00 0.00 49 971.9
20260505234004 74 191 3.0 6.0 0.00 0.00 0.00 49 971.9
20260505233504 74 197 2.0 3.0 0.00 0.00 0.00 49 971.8
20260505233004 75 229 2.0 3.0 0.00 0.00 0.00 48 971.8
20260505232504 75 225 3.0 5.0 0.00 0.00 0.00 48 971.8
20260505232004 75 202 2.0 3.0 0.00 0.00 0.00 48 971.8
20260505231504 75 161 2.0 3.0 0.00 0.00 0.00 48 971.8
20260505230504 75 212 2.0 6.0 0.00 0.00 0.00 47 971.8
20260505225504 76 202 3.0 5.0 0.00 0.00 0.00 46 971.7
20260505225004 76 171 2.0 6.0 0.00 0.00 0.00 45 971.6
20260505224505 76 158 4.0 6.0 0.00 0.00 0.00 45 971.6
20260505224004 76 184 2.0 5.0 0.00 0.00 0.00 45 971.6
20260505223504 77 180 3.0 6.0 0.00 0.00 0.00 45 971.5
20260505223004 77 190 3.0 6.0 0.00 0.00 0.00 44 971.5
20260505222504 77 219 4.0 6.0 0.00 0.00 0.00 44 971.5
20260505222004 77 225 2.0 5.0 0.00 0.00 0.00 44 971.5
20260505221504 77 191 3.0 5.0 0.00 0.00 0.00 44 971.5
20260505221004 77 191 3.0 6.0 0.00 0.00 0.00 44 971.3
20260505220004 77 199 3.0 6.0 0.00 0.00 0.00 44 971.3
20260505215504 78 264 2.0 3.0 0.00 0.00 0.00 44 971.3
20260505215004 78 169 3.0 6.0 0.00 0.00 0.00 44 971.2
20260505214004 79 212 3.0 7.0 0.00 0.00 0.00 42 971.2
20260505213504 80 207 4.0 10.0 0.00 0.00 0.00 42 971.0
20260505212504 80 213 2.0 7.0 0.00 0.00 0.00 42 971.0
20260505212004 81 215 5.0 7.0 0.00 0.00 0.00 41 971.0
20260505211504 81 200 3.0 7.0 0.00 0.00 0.00 41 971.0
20260505211004 81 192 4.0 7.0 0.00 0.00 0.00 41 970.7
20260505210504 81 194 5.0 7.0 0.00 0.00 0.00 41 970.7
20260505210004 83 164 3.0 6.0 0.00 0.00 0.00 38 970.8
20260505205504 84 268 5.0 9.0 0.00 0.00 0.00 35 970.8
20260505205004 84 238 4.0 8.0 0.00 0.00 0.00 34 970.8
20260505204504 85 260 5.0 9.0 0.00 0.00 0.00 34 970.8
20260505204005 85 261 6.0 9.0 0.00 0.00 0.00 33 970.8
20260505203504 84 236 4.0 8.0 0.00 0.00 0.00 35 970.9
20260505203004 83 195 4.0 8.0 0.00 0.00 0.00 35 970.9
20260505202504 82 180 5.0 7.0 0.00 0.00 0.00 35 971.0
20260505202004 82 202 6.0 9.0 0.00 0.00 0.00 35 971.0
20260505201504 82 254 7.0 8.0 0.00 0.00 0.00 35 971.0
20260505201004 84 231 6.0 10.0 0.00 0.00 0.00 34 971.1
20260505200504 83 219 5.0 8.0 0.00 0.00 0.00 36 971.1
20260505200005 83 194 5.0 7.0 0.00 0.00 0.00 35 971.1
20260505195004 82 198 5.0 7.0 0.00 0.00 0.00 35 971.1
20260505194504 83 251 6.0 9.0 0.00 0.00 0.00 35 971.3
20260505194004 84 212 5.0 8.0 0.00 0.00 0.00 35 971.3
20260505193504 83 234 5.0 8.0 0.00 0.00 0.00 34 971.4
20260505193004 82 105 5.0 8.0 0.00 0.00 0.00 35 971.4
20260505192004 82 258 6.0 10.0 0.00 0.00 0.00 34 971.5
20260505191504 82 181 5.0 6.0 0.00 0.00 0.00 35 971.5
20260505191004 81 124 5.0 9.0 0.00 0.00 0.00 37 971.7
20260505190504 82 195 4.0 8.0 0.00 0.00 0.00 37 971.7
20260505190004 84 244 5.0 7.0 0.00 0.00 0.00 36 971.9
20260505185504 83 148 4.0 7.0 0.00 0.00 0.00 37 971.9
20260505185004 83 202 6.0 7.0 0.00 0.00 0.00 37 971.8
20260505184504 84 147 3.0 6.0 0.00 0.00 0.00 38 971.8
20260505184005 84 259 5.0 7.0 0.00 0.00 0.00 37 971.8
20260505183504 83 208 5.0 6.0 0.00 0.00 0.00 39 971.9
20260505183004 83 158 5.0 6.0 0.00 0.00 0.00 39 971.9
20260505182503 82 91 6.0 7.0 0.00 0.00 0.00 40 972.2
20260505182004 81 158 5.0 9.0 0.00 0.00 0.00 42 972.2
20260505181504 82 209 5.0 7.0 0.00 0.00 0.00 40 972.2
20260505180004 83 203 5.0 8.0 0.00 0.00 0.00 39 972.5
20260505175504 82 155 6.0 7.0 0.00 0.00 0.00 39 972.5
20260505175004 82 226 4.0 6.0 0.00 0.00 0.00 39 972.5
20260505174004 82 186 7.0 8.0 0.00 0.00 0.00 39 972.5
20260505173504 82 258 5.0 7.0 0.00 0.00 0.00 40 972.6
20260505172504 83 174 5.0 8.0 0.00 0.00 0.00 42 972.4
20260505172004 83 293 3.0 5.0 0.00 0.00 0.00 42 972.4
20260505171504 81 138 6.0 7.0 0.00 0.00 0.00 43 972.4
20260505171004 85 225 4.0 7.0 0.00 0.00 0.00 41 972.6
20260505165504 83 198 4.0 6.0 0.00 0.00 0.00 43 972.8
20260505164504 82 242 5.0 6.0 0.00 0.00 0.00 44 972.9
20260505163004 82 202 4.0 6.0 0.00 0.00 0.00 45 973.2
20260505162504 84 158 6.0 8.0 0.00 0.00 0.00 44 973.3
20260505162004 82 194 3.0 6.0 0.00 0.00 0.00 46 973.3
20260505161504 82 218 3.0 5.0 0.00 0.00 0.00 45 973.3
20260505161004 80 203 3.0 6.0 0.00 0.00 0.00 48 973.6
20260505160504 80 220 3.0 5.0 0.00 0.00 0.00 47 973.6
20260505152504 77 215 4.0 7.0 0.00 0.00 0.00 50 973.8
20260505152004 78 225 4.0 6.0 0.00 0.00 0.00 50 973.8
20260505151504 79 213 3.0 5.0 0.00 0.00 0.00 48 973.8
20260505151004 79 242 5.0 8.0 0.00 0.00 0.00 47 973.8
20260505150504 77 200 4.0 8.0 0.00 0.00 0.00 50 973.8
20260505140504 72 139 4.0 6.0 0.00 0.00 0.00 58 974.3
20260505125004 65 167 3.0 5.0 0.00 0.00 0.00 71 974.2
20260505124504 65 253 5.0 6.0 0.00 0.00 0.00 71 974.2
20260505124004 66 238 2.0 5.0 0.00 0.00 0.00 70 974.2
20260505123504 66 193 3.0 3.0 0.00 0.00 0.00 72 974.2
20260505123004 65 202 3.0 5.0 0.00 0.00 0.00 72 974.2
20260505122504 64 212 3.0 3.0 0.00 0.00 0.00 75 974.3
20260505122004 64 116 3.0 3.0 0.00 0.00 0.00 76 974.3
20260505121504 63 180 2.0 3.0 0.00 0.00 0.00 78 974.3
20260505121004 62 248 3.0 5.0 0.00 0.00 0.00 79 974.3
20260505120504 62 203 2.0 3.0 0.00 0.00 0.00 79 974.3
20260505120005 62 159 2.0 2.0 0.00 0.00 0.00 84 974.2
20260505115504 60 179 2.0 3.0 0.00 0.00 0.00 84 974.2
20260505115004 60 158 1.0 2.0 0.00 0.00 0.00 86 974.1
20260505114504 59 149 1.0 2.0 0.00 0.00 0.00 88 973.9
20260505114004 57 136 1.0 2.0 0.00 0.00 0.00 89 973.9
20260505113504 57 180 0.0 0.0 0.00 0.00 0.00 91 973.8
20260505113005 55 158 0.0 0.0 0.00 0.00 0.00 91 973.8
20260505112505 54 170 0.0 0.0 0.00 0.00 0.00 91 973.9
20260505112004 54 161 0.0 0.0 0.00 0.00 0.00 91 973.9
20260505111504 53 180 0.0 0.0 0.00 0.00 0.00 91 973.9
20260505111005 52 225 0.0 0.0 0.00 0.00 0.00 91 973.9
20260505101504 52 180 0.0 0.0 0.00 0.00 0.00 90 973.5
20260505101004 53 180 0.0 0.0 0.00 0.00 0.00 89 973.5
20260505100503 53 177 0.0 0.0 0.00 0.00 0.00 89 973.5
20260505100004 53 180 0.0 0.0 0.00 0.00 0.00 89 973.5
20260505095504 53 180 0.0 1.0 0.00 0.00 0.00 88 973.5
20260505095005 54 145 0.0 1.0 0.00 0.00 0.00 88 973.5
20260505094504 54 219 2.0 3.0 0.00 0.00 0.00 87 973.4
20260505094004 54 225 3.0 5.0 0.00 0.00 0.00 87 973.4
20260505093004 55 155 4.0 6.0 0.00 0.00 0.00 84 974.0
20260505092504 55 208 3.0 5.0 0.00 0.00 0.00 80 973.9
20260505092005 54 180 2.0 3.0 0.00 0.00 0.00 81 973.9
20260505091504 53 225 3.0 3.0 0.00 0.00 0.00 82 973.9
20260505091004 50 193 2.0 3.0 0.00 0.00 0.00 86 973.5
20260505090504 48 207 2.0 3.0 0.00 0.00 0.00 88 973.5
20260505090004 47 150 0.0 1.0 0.00 0.00 0.00 88 973.6
20260505085504 47 162 1.0 2.0 0.00 0.00 0.00 88 973.6
20260505084504 46 202 0.0 0.0 0.00 0.00 0.00 88 973.4
20260505083504 47 202 1.0 1.0 0.00 0.00 0.00 88 973.3
20260505083004 47 180 0.0 0.0 0.00 0.00 0.00 87 973.3
20260505082504 47 180 0.0 0.0 0.00 0.00 0.00 87 973.2
20260505082004 47 180 0.0 0.0 0.00 0.00 0.00 88 973.2
20260505081504 47 180 0.0 0.0 0.00 0.00 0.00 87 973.2
20260505080504 47 180 0.0 0.0 0.00 0.00 0.00 86 973.2
20260505080004 47 180 0.0 0.0 0.00 0.00 0.00 86 973.3
20260505075504 47 202 0.0 0.0 0.00 0.00 0.00 86 973.3
20260505075004 48 202 0.0 0.0 0.00 0.00 0.00 86 973.3
20260505074504 48 202 0.0 0.0 0.00 0.00 0.00 86 973.3
20260505073504 48 197 0.0 0.0 0.00 0.00 0.00 86 973.3
20260505072004 49 202 0.0 0.0 0.00 0.00 0.00 86 973.3
20260505071505 49 202 0.0 0.0 0.00 0.00 0.00 85 973.3
20260505071005 49 202 0.0 0.0 0.00 0.00 0.00 85 973.3
20260505070504 49 202 0.0 0.0 0.00 0.00 0.00 85 973.3
20260505070004 49 202 0.0 1.0 0.00 0.00 0.00 85 973.2
20260505065504 49 202 0.0 1.0 0.00 0.00 0.00 85 973.2
20260505064505 49 180 0.0 0.0 0.00 0.00 0.00 84 973.3
20260505064005 49 168 0.0 0.0 0.00 0.00 0.00 83 973.3
20260505063504 49 202 0.0 0.0 0.00 0.00 0.00 82 973.4
20260505063004 49 202 0.0 0.0 0.00 0.00 0.00 82 973.4
20260505062504 49 112 0.0 0.0 0.00 0.00 0.00 81 973.4
20260505062004 49 112 0.0 0.0 0.00 0.00 0.00 81 973.4
20260505061504 49 180 0.0 0.0 0.00 0.00 0.00 81 973.4
20260505061004 50 158 0.0 0.0 0.00 0.00 0.00 81 973.4
20260505060504 50 158 0.0 0.0 0.00 0.00 0.00 80 973.4
20260505060005 50 158 0.0 0.0 0.00 0.00 0.00 80 973.5
20260505055504 50 158 0.0 0.0 0.00 0.00 0.00 80 973.5
20260505055004 50 158 0.0 0.0 0.00 0.00 0.00 80 973.5
20260505054504 50 135 0.0 0.0 0.00 0.00 0.00 80 973.5
20260505054004 50 154 0.0 0.0 0.00 0.00 0.00 80 973.5
20260505053504 50 158 0.0 0.0 0.00 0.00 0.00 80 973.5
20260505053004 50 158 0.0 0.0 0.00 0.00 0.00 80 973.5
20260505052005 50 112 0.0 1.0 0.00 0.00 0.00 80 973.4
20260505051505 50 112 0.0 0.0 0.00 0.00 0.00 79 973.4
20260505051004 50 112 0.0 0.0 0.00 0.00 0.00 79 973.3
20260505050504 50 180 0.0 0.0 0.00 0.00 0.00 79 973.3
20260505041505 53 158 0.0 0.0 0.00 0.00 0.00 74 973.4
20260505041004 53 175 0.0 0.0 0.00 0.00 0.00 73 973.2
20260505040504 53 112 0.0 0.0 0.00 0.00 0.00 74 973.2
20260505040005 53 133 0.0 0.0 0.00 0.00 0.00 72 973.2
20260505035504 53 202 0.0 1.0 0.00 0.00 0.00 72 973.2
20260505035004 53 215 1.0 1.0 0.00 0.00 0.00 72 973.2
20260505034504 53 158 0.0 0.0 0.00 0.00 0.00 71 973.2
20260505034005 53 158 0.0 0.0 0.00 0.00 0.00 71 973.2
20260505033504 53 180 0.0 0.0 0.00 0.00 0.00 71 973.3
20260505033004 53 112 0.0 0.0 0.00 0.00 0.00 71 973.3
20260505031504 54 112 0.0 0.0 0.00 0.00 0.00 70 973.5
20260505031004 54 112 0.0 0.0 0.00 0.00 0.00 70 973.5
20260505030504 54 112 0.0 0.0 0.00 0.00 0.00 71 973.5
20260505030004 54 112 0.0 0.0 0.00 0.00 0.00 71 973.6
20260505025504 55 121 0.0 0.0 0.00 0.00 0.00 69 973.6
20260505025004 55 112 0.0 0.0 0.00 0.00 0.00 68 973.7
20260505024504 55 112 0.0 0.0 0.00 0.00 0.00 68 973.7